Time,TemperatureF,DewpointF,PressureIn,WindDirection,WindDirectionDegrees,WindSpeedMPH,WindSpeedGustMPH,Humidity,HourlyPrecipIn,Conditions,Clouds,dailyrainin,SoftwareType,DateUTC
2013-12-15 00:03:00,7.4,1.4,30.15,NNW,334,5.0,9.0,76,0.00,,,0.00,Wunderground v.1.15,2013-12-15 06:03:00,
2013-12-15 00:09:00,7.4,1.4,30.15,North,351,6.0,9.0,76,0.00,,,0.00,Wunderground v.1.15,2013-12-15 06:09:00,
2013-12-15 00:14:00,7.4,1.4,30.15,NNW,338,8.0,8.0,76,0.00,,,0.00,Wunderground v.1.15,2013-12-15 06:14:00,
2013-12-15 00:20:00,7.4,1.4,30.15,NNW,348,11.0,11.0,76,0.00,,,0.00,Wunderground v.1.15,2013-12-15 06:20:00,
2013-12-15 00:26:00,7.2,1.2,30.15,North,9,6.0,13.0,76,0.00,,,0.00,Wunderground v.1.15,2013-12-15 06:26:00,
2013-12-15 00:31:00,7.0,1.0,30.15,NW,324,9.0,11.0,76,0.00,,,0.00,Wunderground v.1.15,2013-12-15 06:31:00,
2013-12-15 00:37:00,7.0,1.0,30.15,North,5,7.0,11.0,76,0.00,,,0.00,Wunderground v.1.15,2013-12-15 06:37:00,
2013-12-15 00:42:00,6.9,0.9,30.15,North,360,5.0,8.0,76,0.00,,,0.00,Wunderground v.1.15,2013-12-15 06:42:00,
2013-12-15 00:48:00,6.7,0.7,30.13,North,5,7.0,8.0,76,0.00,,,0.00,Wunderground v.1.15,2013-12-15 06:48:00,
2013-12-15 00:53:00,6.5,0.5,30.13,NNW,341,10.0,12.0,76,0.00,,,0.00,Wunderground v.1.15,2013-12-15 06:53:00,
2013-12-15 00:59:00,6.5,0.5,30.13,North,350,6.0,12.0,76,0.00,,,0.00,Wunderground v.1.15,2013-12-15 06:59:00,
2013-12-15 01:04:00,6.3,0.1,30.14,North,351,5.0,10.0,75,0.00,,,0.00,Wunderground v.1.15,2013-12-15 07:04:00,
2013-12-15 01:10:00,6.3,0.1,30.14,NW,324,5.0,7.0,75,0.00,,,0.00,Wunderground v.1.15,2013-12-15 07:10:00,
2013-12-15 01:15:00,6.3,-0.2,30.14,NNW,344,7.0,7.0,74,0.00,,,0.00,Wunderground v.1.15,2013-12-15 07:15:00,
2013-12-15 01:21:00,6.3,-0.2,30.13,NNE,18,9.0,9.0,74,0.00,,,0.00,Wunderground v.1.15,2013-12-15 07:21:00,
2013-12-15 01:27:00,6.3,-0.2,30.13,NNW,342,4.0,9.0,74,0.00,,,0.00,Wunderground v.1.15,2013-12-15 07:27:00,
2013-12-15 01:32:00,6.5,0.0,30.13,North,360,2.0,6.0,74,0.00,,,0.00,Wunderground v.1.15,2013-12-15 07:32:00,
2013-12-15 01:38:00,6.5,-0.3,30.13,NW,320,6.0,7.0,73,0.00,,,0.00,Wunderground v.1.15,2013-12-15 07:38:00,
2013-12-15 01:44:00,6.3,-0.5,30.13,NNW,346,6.0,12.0,73,0.00,,,0.00,Wunderground v.1.15,2013-12-15 07:44:00,
2013-12-15 01:50:00,6.1,-0.7,30.12,North,355,6.0,7.0,73,0.00,,,0.00,Wunderground v.1.15,2013-12-15 07:50:00,
2013-12-15 01:56:00,6.1,-0.7,30.12,North,360,10.0,11.0,73,0.00,,,0.00,Wunderground v.1.15,2013-12-15 07:56:00,
2013-12-15 02:01:00,6.1,-0.7,30.12,NW,323,7.0,8.0,73,0.00,,,0.00,Wunderground v.1.15,2013-12-15 08:01:00,
2013-12-15 02:06:00,6.3,-0.5,30.13,NW,319,5.0,11.0,73,0.00,,,0.00,Wunderground v.1.15,2013-12-15 08:06:00,
2013-12-15 02:11:00,6.3,-0.5,30.13,NW,322,4.0,6.0,73,0.00,,,0.00,Wunderground v.1.15,2013-12-15 08:11:00,
2013-12-15 02:16:00,6.3,-0.5,30.13,North,350,4.0,7.0,73,0.00,,,0.00,Wunderground v.1.15,2013-12-15 08:16:00,
2013-12-15 02:21:00,6.5,-0.3,30.14,NW,318,4.0,8.0,73,0.00,,,0.00,Wunderground v.1.15,2013-12-15 08:21:00,
2013-12-15 02:26:00,6.5,-0.6,30.14,NW,321,3.0,10.0,72,0.00,,,0.00,Wunderground v.1.15,2013-12-15 08:26:00,
2013-12-15 02:31:00,6.3,-0.8,30.14,NNW,327,7.0,9.0,72,0.00,,,0.00,Wunderground v.1.15,2013-12-15 08:31:00,
2013-12-15 02:36:00,6.3,-1.1,30.13,NW,315,5.0,9.0,71,0.00,,,0.00,Wunderground v.1.15,2013-12-15 08:36:00,
2013-12-15 02:41:00,6.3,-1.1,30.13,NNW,342,4.0,9.0,71,0.00,,,0.00,Wunderground v.1.15,2013-12-15 08:41:00,
2013-12-15 02:46:00,6.1,-1.3,30.13,NNW,341,4.0,9.0,71,0.00,,,0.00,Wunderground v.1.15,2013-12-15 08:46:00,
2013-12-15 02:51:00,6.1,-1.3,30.13,NNW,335,3.0,9.0,71,0.00,,,0.00,Wunderground v.1.15,2013-12-15 08:51:00,
2013-12-15 02:56:00,6.3,-0.8,30.13,NNW,336,6.0,9.0,72,0.00,,,0.00,Wunderground v.1.15,2013-12-15 08:56:00,
2013-12-15 03:01:00,6.3,-0.8,30.13,NNW,333,9.0,10.0,72,0.00,,,0.00,Wunderground v.1.15,2013-12-15 09:01:00,
2013-12-15 03:06:00,6.3,-0.8,30.14,North,349,6.0,10.0,72,0.00,,,0.00,Wunderground v.1.15,2013-12-15 09:06:00,
2013-12-15 03:11:00,6.3,-0.5,30.14,NNW,346,7.0,11.0,73,0.00,,,0.00,Wunderground v.1.15,2013-12-15 09:11:00,
2013-12-15 03:16:00,6.1,-1.0,30.14,North,351,7.0,11.0,72,0.00,,,0.00,Wunderground v.1.15,2013-12-15 09:16:00,
2013-12-15 03:21:00,6.0,-1.1,30.13,North,11,10.0,11.0,72,0.00,,,0.00,Wunderground v.1.15,2013-12-15 09:21:00,
2013-12-15 03:26:00,6.0,-1.1,30.13,NNW,346,6.0,11.0,72,0.00,,,0.00,Wunderground v.1.15,2013-12-15 09:26:00,
2013-12-15 03:31:00,5.8,-1.3,30.13,North,349,6.0,12.0,72,0.00,,,0.00,Wunderground v.1.15,2013-12-15 09:31:00,
2013-12-15 03:36:00,5.8,-1.0,30.14,NNW,348,7.0,12.0,73,0.00,,,0.00,Wunderground v.1.15,2013-12-15 09:36:00,
2013-12-15 03:41:00,5.6,-1.2,30.14,NNW,346,7.0,8.0,73,0.00,,,0.00,Wunderground v.1.15,2013-12-15 09:41:00,
2013-12-15 03:46:00,5.8,-0.7,30.14,North,351,6.0,11.0,74,0.00,,,0.00,Wunderground v.1.15,2013-12-15 09:46:00,
2013-12-15 03:51:00,5.6,-0.9,30.13,NNE,21,6.0,10.0,74,0.00,,,0.00,Wunderground v.1.15,2013-12-15 09:51:00,
2013-12-15 03:56:00,5.2,-1.3,30.13,North,350,6.0,13.0,74,0.00,,,0.00,Wunderground v.1.15,2013-12-15 09:56:00,
2013-12-15 04:01:00,5.2,-1.0,30.13,North,360,7.0,9.0,75,0.00,,,0.00,Wunderground v.1.15,2013-12-15 10:01:00,
2013-12-15 04:06:00,5.2,-1.0,30.13,North,349,7.0,10.0,75,0.00,,,0.00,Wunderground v.1.15,2013-12-15 10:06:00,
2013-12-15 04:11:00,5.2,-1.0,30.13,North,351,6.0,9.0,75,0.00,,,0.00,Wunderground v.1.15,2013-12-15 10:11:00,
2013-12-15 04:16:00,5.0,-1.2,30.13,North,360,5.0,10.0,75,0.00,,,0.00,Wunderground v.1.15,2013-12-15 10:16:00,
2013-12-15 04:21:00,5.2,-1.0,30.11,North,360,6.0,7.0,75,0.00,,,0.00,Wunderground v.1.15,2013-12-15 10:21:00,
2013-12-15 04:26:00,5.0,-1.2,30.11,North,360,9.0,13.0,75,0.00,,,0.00,Wunderground v.1.15,2013-12-15 10:26:00,
2013-12-15 04:31:00,4.8,-1.7,30.11,NNW,348,12.0,13.0,74,0.00,,,0.00,Wunderground v.1.15,2013-12-15 10:31:00,
2013-12-15 04:36:00,4.7,-1.5,30.13,NNW,342,9.0,13.0,75,0.00,,,0.00,Wunderground v.1.15,2013-12-15 10:36:00,
2013-12-15 04:41:00,4.5,-1.7,30.13,NNW,343,9.0,10.0,75,0.00,,,0.00,Wunderground v.1.15,2013-12-15 10:41:00,
2013-12-15 04:46:00,4.5,-1.7,30.13,NW,321,9.0,16.0,75,0.00,,,0.00,Wunderground v.1.15,2013-12-15 10:46:00,
2013-12-15 04:51:00,4.5,-1.7,30.15,NNW,338,8.0,12.0,75,0.00,,,0.00,Wunderground v.1.15,2013-12-15 10:51:00,
2013-12-15 04:56:00,4.3,-1.9,30.15,NNW,347,9.0,14.0,75,0.00,,,0.00,Wunderground v.1.15,2013-12-15 10:56:00,
2013-12-15 05:01:00,4.5,-1.7,30.15,North,360,6.0,11.0,75,0.00,,,0.00,Wunderground v.1.15,2013-12-15 11:01:00,
2013-12-15 05:06:00,4.3,-1.9,30.12,North,9,3.0,11.0,75,0.00,,,0.00,Wunderground v.1.15,2013-12-15 11:06:00,
2013-12-15 05:11:00,4.3,-1.9,30.12,North,11,10.0,11.0,75,0.00,,,0.00,Wunderground v.1.15,2013-12-15 11:11:00,
2013-12-15 05:16:00,4.1,-2.1,30.12,North,350,6.0,12.0,75,0.00,,,0.00,Wunderground v.1.15,2013-12-15 11:16:00,
2013-12-15 05:21:00,3.9,-2.5,30.13,NNW,346,6.0,10.0,74,0.00,,,0.00,Wunderground v.1.15,2013-12-15 11:21:00,
2013-12-15 05:26:00,3.7,-2.7,30.13,North,349,5.0,10.0,74,0.00,,,0.00,Wunderground v.1.15,2013-12-15 11:26:00,
2013-12-15 05:31:00,3.9,-2.5,30.13,North,351,5.0,8.0,74,0.00,,,0.00,Wunderground v.1.15,2013-12-15 11:31:00,
2013-12-15 05:36:00,3.7,-2.5,30.12,NNE,17,4.0,9.0,75,0.00,,,0.00,Wunderground v.1.15,2013-12-15 11:36:00,
2013-12-15 05:42:00,3.7,-2.5,30.12,NNE,14,6.0,9.0,75,0.00,,,0.00,Wunderground v.1.15,2013-12-15 11:42:00,
2013-12-15 05:47:00,3.4,-3.0,30.12,NNE,13,6.0,12.0,74,0.00,,,0.00,Wunderground v.1.15,2013-12-15 11:47:00,
2013-12-15 05:52:00,3.4,-3.3,30.12,North,360,9.0,11.0,73,0.00,,,0.00,Wunderground v.1.15,2013-12-15 11:52:00,
2013-12-15 05:57:00,3.2,-3.5,30.12,NNW,342,10.0,12.0,73,0.00,,,0.00,Wunderground v.1.15,2013-12-15 11:57:00,
2013-12-15 06:02:00,3.2,-3.5,30.12,NNW,343,5.0,10.0,73,0.00,,,0.00,Wunderground v.1.15,2013-12-15 12:02:00,
2013-12-15 06:07:00,3.4,-3.3,30.13,North,351,7.0,12.0,73,0.00,,,0.00,Wunderground v.1.15,2013-12-15 12:07:00,
2013-12-15 06:12:00,3.4,-3.3,30.13,NNW,334,8.0,14.0,73,0.00,,,0.00,Wunderground v.1.15,2013-12-15 12:12:00,
2013-12-15 06:17:00,3.2,-3.8,30.13,NNW,334,6.0,14.0,72,0.00,,,0.00,Wunderground v.1.15,2013-12-15 12:17:00,
2013-12-15 06:22:00,3.2,-3.8,30.14,North,360,6.0,10.0,72,0.00,,,0.00,Wunderground v.1.15,2013-12-15 12:22:00,
2013-12-15 06:27:00,3.0,-4.0,30.14,North,360,5.0,10.0,72,0.00,,,0.00,Wunderground v.1.15,2013-12-15 12:27:00,
2013-12-15 06:32:00,3.2,-3.8,30.14,North,351,5.0,10.0,72,0.00,,,0.00,Wunderground v.1.15,2013-12-15 12:32:00,
2013-12-15 06:37:00,3.0,-4.3,30.13,North,360,9.0,12.0,71,0.00,,,0.00,Wunderground v.1.15,2013-12-15 12:37:00,
2013-12-15 06:42:00,3.2,-4.1,30.13,North,360,5.0,6.0,71,0.00,,,0.00,Wunderground v.1.15,2013-12-15 12:42:00,
2013-12-15 06:47:00,3.0,-4.9,30.13,NNE,17,4.0,11.0,69,0.00,,,0.00,Wunderground v.1.15,2013-12-15 12:47:00,
2013-12-15 06:52:00,3.0,-4.9,30.12,NNE,13,7.0,11.0,69,0.00,,,0.00,Wunderground v.1.15,2013-12-15 12:52:00,
2013-12-15 06:57:00,2.8,-5.1,30.12,North,360,4.0,11.0,69,0.00,,,0.00,Wunderground v.1.15,2013-12-15 12:57:00,
2013-12-15 07:02:00,2.8,-4.8,30.12,NNE,13,4.0,9.0,70,0.00,,,0.00,Wunderground v.1.15,2013-12-15 13:02:00,
2013-12-15 07:07:00,2.6,-5.3,30.13,NNW,346,7.0,11.0,69,0.00,,,0.00,Wunderground v.1.15,2013-12-15 13:07:00,
2013-12-15 07:12:00,2.6,-5.0,30.13,NNW,341,7.0,8.0,70,0.00,,,0.00,Wunderground v.1.15,2013-12-15 13:12:00,
2013-12-15 07:17:00,2.6,-5.0,30.13,North,360,6.0,8.0,70,0.00,,,0.00,Wunderground v.1.15,2013-12-15 13:17:00,
2013-12-15 07:22:00,2.6,-5.0,30.14,North,360,3.0,6.0,70,0.00,,,0.00,Wunderground v.1.15,2013-12-15 13:22:00,
2013-12-15 07:27:00,2.6,-5.0,30.14,North,11,5.0,7.0,70,0.00,,,0.00,Wunderground v.1.15,2013-12-15 13:27:00,
2013-12-15 07:32:00,2.6,-5.0,30.12,North,9,4.0,7.0,70,0.00,,,0.00,Wunderground v.1.15,2013-12-15 13:32:00,
2013-12-15 07:38:00,2.4,-5.5,30.12,North,360,5.0,7.0,69,0.00,,,0.00,Wunderground v.1.15,2013-12-15 13:38:00,
2013-12-15 07:43:00,2.4,-5.5,30.12,North,360,1.0,4.0,69,0.00,,,0.00,Wunderground v.1.15,2013-12-15 13:43:00,
2013-12-15 07:48:00,2.4,-5.5,30.12,North,360,5.0,8.0,69,0.00,,,0.00,Wunderground v.1.15,2013-12-15 13:48:00,
2013-12-15 07:53:00,2.4,-5.5,30.12,North,10,5.0,8.0,69,0.00,,,0.00,Wunderground v.1.15,2013-12-15 13:53:00,
2013-12-15 07:58:00,2.6,-5.0,30.12,NNW,339,7.0,9.0,70,0.00,,,0.00,Wunderground v.1.15,2013-12-15 13:58:00,
2013-12-15 08:03:00,2.6,-5.0,30.13,NNE,12,6.0,9.0,70,0.00,,,0.00,Wunderground v.1.15,2013-12-15 14:03:00,
2013-12-15 08:08:00,2.6,-5.3,30.13,North,11,5.0,11.0,69,0.00,,,0.00,Wunderground v.1.15,2013-12-15 14:08:00,
2013-12-15 08:13:00,2.6,-5.6,30.13,NNE,19,6.0,7.0,68,0.00,,,0.00,Wunderground v.1.15,2013-12-15 14:13:00,
2013-12-15 08:18:00,2.8,-5.1,30.13,NNE,16,5.0,7.0,69,0.00,,,0.00,Wunderground v.1.15,2013-12-15 14:18:00,
2013-12-15 08:23:00,2.6,-5.6,30.13,NNW,346,6.0,10.0,68,0.00,,,0.00,Wunderground v.1.15,2013-12-15 14:23:00,
2013-12-15 08:28:00,2.6,-5.6,30.13,NNW,345,5.0,10.0,68,0.00,,,0.00,Wunderground v.1.15,2013-12-15 14:28:00,
2013-12-15 08:33:00,2.8,-5.4,30.14,North,9,5.0,9.0,68,0.00,,,0.00,Wunderground v.1.15,2013-12-15 14:33:00,
2013-12-15 08:38:00,3.0,-4.9,30.14,North,360,3.0,9.0,69,0.00,,,0.00,Wunderground v.1.15,2013-12-15 14:38:00,
2013-12-15 08:43:00,2.8,-4.8,30.14,North,351,5.0,7.0,70,0.00,,,0.00,Wunderground v.1.15,2013-12-15 14:43:00,
2013-12-15 08:48:00,2.6,-4.7,30.13,North,351,6.0,9.0,71,0.00,,,0.00,Wunderground v.1.15,2013-12-15 14:48:00,
2013-12-15 08:53:00,2.6,-4.7,30.13,North,351,3.0,7.0,71,0.00,,,0.00,Wunderground v.1.15,2013-12-15 14:53:00,
2013-12-15 08:58:00,2.6,-4.7,30.13,North,351,5.0,7.0,71,0.00,,,0.00,Wunderground v.1.15,2013-12-15 14:58:00,
2013-12-15 09:03:00,2.8,-4.5,30.13,NNW,344,5.0,7.0,71,0.00,,,0.00,Wunderground v.1.15,2013-12-15 15:03:00,
2013-12-15 09:08:00,2.8,-4.2,30.13,NNW,347,6.0,7.0,72,0.00,,,0.00,Wunderground v.1.15,2013-12-15 15:08:00,
2013-12-15 09:13:00,2.6,-4.7,30.13,NNE,17,6.0,7.0,71,0.00,,,0.00,Wunderground v.1.15,2013-12-15 15:13:00,
2013-12-15 09:18:00,2.8,-4.5,30.14,NNE,12,3.0,7.0,71,0.00,,,0.00,Wunderground v.1.15,2013-12-15 15:18:00,
2013-12-15 09:23:00,2.8,-4.5,30.14,North,11,5.0,8.0,71,0.00,,,0.00,Wunderground v.1.15,2013-12-15 15:23:00,
2013-12-15 09:28:00,3.0,-4.3,30.14,NNE,15,6.0,8.0,71,0.00,,,0.00,Wunderground v.1.15,2013-12-15 15:28:00,
2013-12-15 09:33:00,3.0,-4.3,30.14,NNE,14,5.0,7.0,71,0.00,,,0.00,Wunderground v.1.15,2013-12-15 15:33:00,
2013-12-15 09:38:00,3.0,-4.3,30.14,NNE,14,0.0,9.0,71,0.00,,,0.00,Wunderground v.1.15,2013-12-15 15:38:00,
2013-12-15 09:43:00,3.2,-4.1,30.14,NNE,33,5.0,9.0,71,0.00,,,0.00,Wunderground v.1.15,2013-12-15 15:43:00,
2013-12-15 09:48:00,3.4,-3.9,30.15,NNE,17,3.0,9.0,71,0.00,,,0.00,Wunderground v.1.15,2013-12-15 15:48:00,
2013-12-15 09:53:00,3.5,-3.8,30.15,NNE,28,5.0,6.0,71,0.00,,,0.00,Wunderground v.1.15,2013-12-15 15:53:00,
2013-12-15 09:58:00,3.4,-3.9,30.15,North,351,1.0,7.0,71,0.00,,,0.00,Wunderground v.1.15,2013-12-15 15:58:00,
2013-12-15 10:03:00,3.4,-3.9,30.15,North,360,7.0,9.0,71,0.00,,,0.00,Wunderground v.1.15,2013-12-15 16:03:00,
2013-12-15 10:08:00,3.4,-3.9,30.15,North,351,4.0,11.0,71,0.00,,,0.00,Wunderground v.1.15,2013-12-15 16:08:00,
2013-12-15 10:14:00,3.4,-4.2,30.15,NNE,17,6.0,10.0,70,0.00,,,0.00,Wunderground v.1.15,2013-12-15 16:14:00,
2013-12-15 10:19:00,3.4,-4.2,30.15,North,360,4.0,10.0,70,0.00,,,0.00,Wunderground v.1.15,2013-12-15 16:19:00,
2013-12-15 10:24:00,3.4,-4.2,30.15,North,5,6.0,10.0,70,0.00,,,0.00,Wunderground v.1.15,2013-12-15 16:24:00,
2013-12-15 10:29:00,3.2,-4.7,30.15,NNE,19,7.0,10.0,69,0.00,,,0.00,Wunderground v.1.15,2013-12-15 16:29:00,
2013-12-15 10:34:00,3.4,-4.5,30.15,NNW,344,6.0,10.0,69,0.00,,,0.00,Wunderground v.1.15,2013-12-15 16:34:00,
2013-12-15 10:39:00,3.4,-4.5,30.15,North,5,4.0,10.0,69,0.00,,,0.00,Wunderground v.1.15,2013-12-15 16:39:00,
2013-12-15 10:44:00,3.5,-4.7,30.15,NNE,24,7.0,10.0,68,0.00,,,0.00,Wunderground v.1.15,2013-12-15 16:44:00,
2013-12-15 10:49:00,3.2,-5.0,30.16,NNE,19,9.0,11.0,68,0.00,,,0.00,Wunderground v.1.15,2013-12-15 16:49:00,
2013-12-15 10:54:00,3.4,-4.8,30.16,NNE,15,6.0,7.0,68,0.00,,,0.00,Wunderground v.1.15,2013-12-15 16:54:00,
2013-12-15 10:59:00,3.5,-4.7,30.16,North,351,6.0,8.0,68,0.00,,,0.00,Wunderground v.1.15,2013-12-15 16:59:00,
2013-12-15 11:04:00,3.5,-4.7,30.16,North,360,6.0,6.0,68,0.00,,,0.00,Wunderground v.1.15,2013-12-15 17:04:00,
2013-12-15 11:09:00,3.5,-4.7,30.16,NNE,12,7.0,9.0,68,0.00,,,0.00,Wunderground v.1.15,2013-12-15 17:09:00,
2013-12-15 11:14:00,3.5,-4.4,30.16,NNE,17,5.0,7.0,69,0.00,,,0.00,Wunderground v.1.15,2013-12-15 17:14:00,
2013-12-15 11:19:00,3.5,-4.7,30.16,NNE,16,7.0,10.0,68,0.00,,,0.00,Wunderground v.1.15,2013-12-15 17:19:00,
2013-12-15 11:24:00,3.7,-4.5,30.16,NNE,22,5.0,9.0,68,0.00,,,0.00,Wunderground v.1.15,2013-12-15 17:24:00,
2013-12-15 11:29:00,3.9,-4.3,30.16,North,11,7.0,9.0,68,0.00,,,0.00,Wunderground v.1.15,2013-12-15 17:29:00,
2013-12-15 11:34:00,4.1,-3.8,30.15,NNE,19,6.0,9.0,69,0.00,,,0.00,Wunderground v.1.15,2013-12-15 17:34:00,
2013-12-15 11:39:00,4.1,-3.8,30.15,NE,36,3.0,10.0,69,0.00,,,0.00,Wunderground v.1.15,2013-12-15 17:39:00,
2013-12-15 11:44:00,4.3,-3.6,30.15,NNE,12,5.0,7.0,69,0.00,,,0.00,Wunderground v.1.15,2013-12-15 17:44:00,
2013-12-15 11:49:00,4.3,-3.6,30.13,NNE,12,4.0,7.0,69,0.00,,,0.00,Wunderground v.1.15,2013-12-15 17:49:00,
2013-12-15 11:54:00,4.1,-3.8,30.13,ENE,73,0.0,5.0,69,0.00,,,0.00,Wunderground v.1.15,2013-12-15 17:54:00,
2013-12-15 11:59:00,4.5,-3.4,30.13,ENE,76,0.0,5.0,69,0.00,,,0.00,Wunderground v.1.15,2013-12-15 17:59:00,
2013-12-15 12:04:00,4.5,-3.4,30.11,NE,48,0.0,4.0,69,0.00,,,0.00,Wunderground v.1.15,2013-12-15 18:04:00,
2013-12-15 12:09:00,4.5,-3.4,30.11,ENE,78,0.0,5.0,69,0.00,,,0.00,Wunderground v.1.15,2013-12-15 18:09:00,
2013-12-15 12:14:00,4.7,-3.2,30.11,ENE,78,0.0,2.0,69,0.00,,,0.00,Wunderground v.1.15,2013-12-15 18:14:00,
2013-12-15 12:19:00,4.8,-3.1,30.11,ENE,78,0.0,2.0,69,0.00,,,0.00,Wunderground v.1.15,2013-12-15 18:19:00,
2013-12-15 12:24:00,5.0,-3.0,30.11,ENE,77,0.0,4.0,69,0.00,,,0.00,Wunderground v.1.15,2013-12-15 18:24:00,
2013-12-15 12:29:00,5.0,-3.0,30.11,East,79,0.0,4.0,69,0.00,,,0.00,Wunderground v.1.15,2013-12-15 18:29:00,
2013-12-15 12:34:00,5.0,-3.0,30.10,NNE,28,2.0,6.0,69,0.00,,,0.00,Wunderground v.1.15,2013-12-15 18:34:00,
2013-12-15 12:39:00,5.0,-2.7,30.10,North,11,0.0,9.0,70,0.00,,,0.00,Wunderground v.1.15,2013-12-15 18:39:00,
2013-12-15 12:44:00,5.2,-2.5,30.10,North,11,3.0,6.0,70,0.00,,,0.00,Wunderground v.1.15,2013-12-15 18:44:00,
2013-12-15 12:49:00,5.2,-2.5,30.10,NNE,12,0.0,6.0,70,0.00,,,0.00,Wunderground v.1.15,2013-12-15 18:49:00,
2013-12-15 12:54:00,5.4,-2.3,30.10,NNE,20,0.0,6.0,70,0.00,,,0.00,Wunderground v.1.15,2013-12-15 18:54:00,
2013-12-15 12:59:00,5.4,-2.3,30.10,NNE,22,2.0,6.0,70,0.00,,,0.00,Wunderground v.1.15,2013-12-15 18:59:00,
2013-12-15 13:04:00,5.6,-2.1,30.08,ENE,61,1.0,5.0,70,0.00,,,0.00,Wunderground v.1.15,2013-12-15 19:04:00,
2013-12-15 13:09:00,5.6,-2.1,30.08,NE,38,2.0,5.0,70,0.00,,,0.00,Wunderground v.1.15,2013-12-15 19:09:00,
2013-12-15 13:14:00,5.6,-2.1,30.08,NE,36,3.0,7.0,70,0.00,,,0.00,Wunderground v.1.15,2013-12-15 19:14:00,
2013-12-15 13:19:00,5.6,-2.1,30.09,NE,42,0.0,7.0,70,0.00,,,0.00,Wunderground v.1.15,2013-12-15 19:19:00,
2013-12-15 13:24:00,5.4,-2.3,30.09,NE,44,1.0,7.0,70,0.00,,,0.00,Wunderground v.1.15,2013-12-15 19:24:00,
2013-12-15 13:29:00,5.4,-2.0,30.09,NNE,22,3.0,7.0,71,0.00,,,0.00,Wunderground v.1.15,2013-12-15 19:29:00,
2013-12-15 13:34:00,5.4,-2.0,30.08,NNE,30,3.0,7.0,71,0.00,,,0.00,Wunderground v.1.15,2013-12-15 19:34:00,
2013-12-15 13:39:00,5.4,-2.0,30.08,ENE,67,5.0,7.0,71,0.00,,,0.00,Wunderground v.1.15,2013-12-15 19:39:00,
2013-12-15 13:44:00,5.4,-2.0,30.08,ENE,70,1.0,5.0,71,0.00,,,0.00,Wunderground v.1.15,2013-12-15 19:44:00,
2013-12-15 13:47:00,5.4,-2.0,30.08,ENE,68,0.0,5.0,71,0.00,,,0.00,Wunderground v.1.15,2013-12-15 19:47:00,
2013-12-15 13:52:00,5.4,-2.0,30.08,ENE,69,0.0,1.0,71,0.00,,,0.00,Wunderground v.1.15,2013-12-15 19:52:00,
2013-12-15 13:57:00,5.6,-1.5,30.08,NE,34,0.0,7.0,72,0.00,,,0.00,Wunderground v.1.15,2013-12-15 19:57:00,
2013-12-15 14:02:00,5.4,-1.7,30.08,East,80,0.0,6.0,72,0.00,,,0.00,Wunderground v.1.15,2013-12-15 20:02:00,
2013-12-15 14:07:00,5.6,-1.5,30.08,East,80,0.0,6.0,72,0.00,,,0.00,Wunderground v.1.15,2013-12-15 20:07:00,
2013-12-15 14:12:00,5.6,-1.5,30.08,NE,52,3.0,5.0,72,0.00,,,0.00,Wunderground v.1.15,2013-12-15 20:12:00,
2013-12-15 14:17:00,5.6,-1.5,30.08,NE,55,1.0,5.0,72,0.00,,,0.00,Wunderground v.1.15,2013-12-15 20:17:00,
2013-12-15 14:22:00,5.6,-1.5,30.07,NE,42,0.0,6.0,72,0.00,,,0.00,Wunderground v.1.15,2013-12-15 20:22:00,
2013-12-15 14:27:00,5.6,-1.5,30.07,ENE,57,0.0,6.0,72,0.00,,,0.00,Wunderground v.1.15,2013-12-15 20:27:00,
2013-12-15 14:32:00,5.6,-1.2,30.07,ENE,57,0.0,4.0,73,0.00,,,0.00,Wunderground v.1.15,2013-12-15 20:32:00,
2013-12-15 14:37:00,6.0,-0.8,30.08,ENE,57,0.0,4.0,73,0.00,,,0.00,Wunderground v.1.15,2013-12-15 20:37:00,
2013-12-15 14:42:00,6.0,-0.8,30.08,NE,37,1.0,4.0,73,0.00,,,0.00,Wunderground v.1.15,2013-12-15 20:42:00,
2013-12-15 14:47:00,6.0,-0.8,30.09,NE,37,2.0,4.0,73,0.00,,,0.00,Wunderground v.1.15,2013-12-15 20:47:00,
2013-12-15 14:52:00,6.0,-0.8,30.09,NE,37,1.0,4.0,73,0.00,,,0.00,Wunderground v.1.15,2013-12-15 20:52:00,
2013-12-15 14:57:00,6.0,-0.8,30.09,NE,34,0.0,5.0,73,0.00,,,0.00,Wunderground v.1.15,2013-12-15 20:57:00,
2013-12-15 15:02:00,5.8,-0.7,30.09,NE,39,1.0,5.0,74,0.00,,,0.00,Wunderground v.1.15,2013-12-15 21:02:00,
2013-12-15 15:07:00,5.8,-0.7,30.09,NE,40,0.0,5.0,74,0.00,,,0.00,Wunderground v.1.15,2013-12-15 21:07:00,
2013-12-15 15:13:00,5.8,-0.7,30.09,NE,41,0.0,3.0,74,0.00,,,0.00,Wunderground v.1.15,2013-12-15 21:13:00,
2013-12-15 15:18:00,5.6,-0.9,30.10,NE,41,0.0,4.0,74,0.00,,,0.00,Wunderground v.1.15,2013-12-15 21:18:00,
2013-12-15 15:23:00,5.8,-0.7,30.10,NE,40,0.0,2.0,74,0.00,,,0.00,Wunderground v.1.15,2013-12-15 21:23:00,
2013-12-15 15:28:00,5.8,-0.4,30.10,NE,44,0.0,5.0,75,0.00,,,0.00,Wunderground v.1.15,2013-12-15 21:28:00,
2013-12-15 15:33:00,5.6,-0.6,30.09,ENE,58,0.0,5.0,75,0.00,,,0.00,Wunderground v.1.15,2013-12-15 21:33:00,
2013-12-15 15:38:00,5.8,-0.1,30.09,NE,51,4.0,6.0,76,0.00,,,0.00,Wunderground v.1.15,2013-12-15 21:38:00,
2013-12-15 15:43:00,5.8,-0.1,30.09,NE,51,0.0,4.0,76,0.00,,,0.00,Wunderground v.1.15,2013-12-15 21:43:00,
2013-12-15 15:48:00,5.6,-0.3,30.09,NE,53,0.0,4.0,76,0.00,,,0.00,Wunderground v.1.15,2013-12-15 21:48:00,
2013-12-15 15:53:00,5.6,-0.3,30.09,NE,55,3.0,4.0,76,0.00,,,0.00,Wunderground v.1.15,2013-12-15 21:53:00,
2013-12-15 15:58:00,5.6,-0.3,30.09,NE,55,4.0,4.0,76,0.00,,,0.00,Wunderground v.1.15,2013-12-15 21:58:00,
2013-12-15 16:03:00,5.4,-0.5,30.08,ENE,58,4.0,4.0,76,0.00,,,0.00,Wunderground v.1.15,2013-12-15 22:03:00,
2013-12-15 16:08:00,5.4,-0.5,30.08,ENE,62,0.0,5.0,76,0.00,,,0.00,Wunderground v.1.15,2013-12-15 22:08:00,
2013-12-15 16:13:00,5.6,-0.1,30.08,ENE,62,1.0,3.0,77,0.00,,,0.00,Wunderground v.1.15,2013-12-15 22:13:00,
2013-12-15 16:18:00,5.4,-0.5,30.09,East,81,3.0,6.0,76,0.00,,,0.00,Wunderground v.1.15,2013-12-15 22:18:00,
2013-12-15 16:23:00,5.2,-0.7,30.09,East,80,4.0,5.0,76,0.00,,,0.00,Wunderground v.1.15,2013-12-15 22:23:00,
2013-12-15 16:28:00,5.2,-0.4,30.09,East,81,4.0,6.0,77,0.00,,,0.00,Wunderground v.1.15,2013-12-15 22:28:00,
2013-12-15 16:33:00,5.2,-0.4,30.08,East,85,5.0,5.0,77,0.00,,,0.00,Wunderground v.1.15,2013-12-15 22:33:00,
2013-12-15 16:38:00,5.2,-0.4,30.08,East,86,0.0,5.0,77,0.00,,,0.00,Wunderground v.1.15,2013-12-15 22:38:00,
2013-12-15 16:43:00,5.4,0.0,30.08,East,86,0.0,5.0,78,0.00,,,0.00,Wunderground v.1.15,2013-12-15 22:43:00,
2013-12-15 16:48:00,5.6,0.2,30.07,ENE,74,3.0,6.0,78,0.00,,,0.00,Wunderground v.1.15,2013-12-15 22:48:00,
2013-12-15 16:53:00,5.4,0.0,30.07,ENE,74,0.0,5.0,78,0.00,,,0.00,Wunderground v.1.15,2013-12-15 22:53:00,
2013-12-15 16:58:00,5.4,0.0,30.07,East,81,2.0,6.0,78,0.00,,,0.00,Wunderground v.1.15,2013-12-15 22:58:00,
2013-12-15 17:03:00,5.4,-0.2,30.08,NNE,32,1.0,5.0,77,0.00,,,0.00,Wunderground v.1.15,2013-12-15 23:03:00,
2013-12-15 17:09:00,5.2,-0.4,30.08,ENE,69,3.0,6.0,77,0.00,,,0.00,Wunderground v.1.15,2013-12-15 23:09:00,
2013-12-15 17:14:00,5.2,-0.2,30.08,ENE,72,0.0,5.0,78,0.00,,,0.00,Wunderground v.1.15,2013-12-15 23:14:00,
2013-12-15 17:19:00,5.2,-0.2,30.07,East,96,2.0,6.0,78,0.00,,,0.00,Wunderground v.1.15,2013-12-15 23:19:00,
2013-12-15 17:24:00,5.2,-0.2,30.07,ENE,71,3.0,5.0,78,0.00,,,0.00,Wunderground v.1.15,2013-12-15 23:24:00,
2013-12-15 17:29:00,5.2,-0.2,30.07,East,80,3.0,6.0,78,0.00,,,0.00,Wunderground v.1.15,2013-12-15 23:29:00,
2013-12-15 17:34:00,5.2,-0.2,30.08,East,87,4.0,5.0,78,0.00,,,0.00,Wunderground v.1.15,2013-12-15 23:34:00,
2013-12-15 17:39:00,5.2,-0.2,30.08,East,94,4.0,7.0,78,0.00,,,0.00,Wunderground v.1.15,2013-12-15 23:39:00,
2013-12-15 17:44:00,5.4,0.0,30.08,East,93,1.0,4.0,78,0.00,,,0.00,Wunderground v.1.15,2013-12-15 23:44:00,
2013-12-15 17:49:00,5.4,0.0,30.09,East,90,3.0,5.0,78,0.00,,,0.00,Wunderground v.1.15,2013-12-15 23:49:00,
2013-12-15 17:54:00,5.4,0.0,30.09,ENE,65,5.0,5.0,78,0.00,,,0.00,Wunderground v.1.15,2013-12-15 23:54:00,
2013-12-15 17:59:00,5.2,-0.2,30.09,ENE,71,4.0,5.0,78,0.00,,,0.00,Wunderground v.1.15,2013-12-15 23:59:00,
2013-12-15 18:04:00,5.2,-0.2,30.10,ENE,73,0.0,5.0,78,0.00,,,0.00,Wunderground v.1.15,2013-12-16 00:04:00,
2013-12-15 18:09:00,5.4,0.0,30.10,ENE,73,2.0,5.0,78,0.00,,,0.00,Wunderground v.1.15,2013-12-16 00:09:00,
2013-12-15 18:14:00,5.2,-0.2,30.10,ENE,61,0.0,6.0,78,0.00,,,0.00,Wunderground v.1.15,2013-12-16 00:14:00,
2013-12-15 18:19:00,5.4,0.0,30.10,ENE,62,1.0,6.0,78,0.00,,,0.00,Wunderground v.1.15,2013-12-16 00:19:00,
2013-12-15 18:24:00,5.2,-0.2,30.10,ENE,78,2.0,5.0,78,0.00,,,0.00,Wunderground v.1.15,2013-12-16 00:24:00,
2013-12-15 18:29:00,5.4,0.0,30.10,ENE,78,0.0,5.0,78,0.00,,,0.00,Wunderground v.1.15,2013-12-16 00:29:00,
2013-12-15 18:34:00,5.4,0.0,30.10,ENE,78,0.0,2.0,78,0.00,,,0.00,Wunderground v.1.15,2013-12-16 00:34:00,
2013-12-15 18:39:00,5.4,0.0,30.10,ENE,77,2.0,4.0,78,0.00,,,0.00,Wunderground v.1.15,2013-12-16 00:39:00,
2013-12-15 18:44:00,5.4,0.0,30.10,East,89,2.0,5.0,78,0.00,,,0.00,Wunderground v.1.15,2013-12-16 00:44:00,
2013-12-15 18:49:00,5.2,-0.2,30.10,ENE,78,2.0,6.0,78,0.00,,,0.00,Wunderground v.1.15,2013-12-16 00:49:00,
2013-12-15 18:54:00,5.4,0.0,30.10,ENE,78,2.0,4.0,78,0.00,,,0.00,Wunderground v.1.15,2013-12-16 00:54:00,
2013-12-15 18:59:00,5.4,0.0,30.10,East,84,4.0,5.0,78,0.00,,,0.00,Wunderground v.1.15,2013-12-16 00:59:00,
2013-12-15 19:04:00,5.2,-0.2,30.09,ENE,78,2.0,6.0,78,0.00,,,0.00,Wunderground v.1.15,2013-12-16 01:04:00,
2013-12-15 19:09:00,5.2,-0.2,30.09,East,80,4.0,8.0,78,0.00,,,0.00,Wunderground v.1.15,2013-12-16 01:09:00,
2013-12-15 19:14:00,5.4,0.0,30.09,East,88,3.0,5.0,78,0.00,,,0.00,Wunderground v.1.15,2013-12-16 01:14:00,
2013-12-15 19:19:00,5.4,0.0,30.08,East,91,3.0,7.0,78,0.00,,,0.00,Wunderground v.1.15,2013-12-16 01:19:00,
2013-12-15 19:24:00,5.4,0.0,30.08,East,79,0.0,6.0,78,0.00,,,0.00,Wunderground v.1.15,2013-12-16 01:24:00,
2013-12-15 19:29:00,5.4,0.0,30.08,ENE,58,0.0,6.0,78,0.00,,,0.00,Wunderground v.1.15,2013-12-16 01:29:00,
2013-12-15 19:34:00,5.6,0.2,30.10,East,92,0.0,6.0,78,0.00,,,0.00,Wunderground v.1.15,2013-12-16 01:34:00,
2013-12-15 19:40:00,5.6,0.2,30.10,ENE,68,3.0,3.0,78,0.00,,,0.00,Wunderground v.1.15,2013-12-16 01:40:00,
2013-12-15 19:44:00,5.6,0.2,30.10,ENE,65,4.0,6.0,78,0.00,,,0.00,Wunderground v.1.15,2013-12-16 01:44:00,
2013-12-15 19:50:00,5.8,0.4,30.08,ENE,69,3.0,3.0,78,0.00,,,0.00,Wunderground v.1.15,2013-12-16 01:50:00,
2013-12-15 19:55:00,5.8,0.4,30.08,ENE,75,2.0,6.0,78,0.00,,,0.00,Wunderground v.1.15,2013-12-16 01:55:00,
2013-12-15 20:00:00,5.8,0.4,30.08,East,81,2.0,3.0,78,0.00,,,0.00,Wunderground v.1.15,2013-12-16 02:00:00,
2013-12-15 20:05:00,6.0,0.9,30.09,East,88,3.0,5.0,79,0.00,,,0.00,Wunderground v.1.15,2013-12-16 02:05:00,
2013-12-15 20:10:00,6.0,0.6,30.09,ENE,78,5.0,5.0,78,0.00,,,0.00,Wunderground v.1.15,2013-12-16 02:10:00,
2013-12-15 20:15:00,6.0,0.6,30.09,East,82,0.0,9.0,78,0.00,,,0.00,Wunderground v.1.15,2013-12-16 02:15:00,
2013-12-15 20:20:00,6.0,0.6,30.08,East,85,3.0,3.0,78,0.00,,,0.00,Wunderground v.1.15,2013-12-16 02:20:00,
2013-12-15 20:25:00,6.0,0.6,30.08,ESE,107,0.0,7.0,78,0.00,,,0.00,Wunderground v.1.15,2013-12-16 02:25:00,
2013-12-15 20:30:00,6.0,0.6,30.08,East,94,2.0,3.0,78,0.00,,,0.00,Wunderground v.1.15,2013-12-16 02:30:00,
2013-12-15 20:35:00,6.0,0.6,30.10,East,83,1.0,6.0,78,0.00,,,0.00,Wunderground v.1.15,2013-12-16 02:35:00,
2013-12-15 20:40:00,6.0,0.6,30.10,East,84,0.0,3.0,78,0.00,,,0.00,Wunderground v.1.15,2013-12-16 02:40:00,
2013-12-15 20:45:00,6.0,0.6,30.10,East,99,5.0,7.0,78,0.00,,,0.00,Wunderground v.1.15,2013-12-16 02:45:00,
2013-12-15 20:50:00,5.8,0.4,30.09,East,98,7.0,7.0,78,0.00,,,0.00,Wunderground v.1.15,2013-12-16 02:50:00,
2013-12-15 20:55:00,5.8,0.4,30.09,East,90,0.0,7.0,78,0.00,,,0.00,Wunderground v.1.15,2013-12-16 02:55:00,
2013-12-15 21:00:00,5.8,0.4,30.09,East,88,3.0,5.0,78,0.00,,,0.00,Wunderground v.1.15,2013-12-16 03:00:00,
2013-12-15 21:05:00,5.8,0.4,30.10,ESE,103,2.0,7.0,78,0.00,,,0.00,Wunderground v.1.15,2013-12-16 03:05:00,
2013-12-15 21:10:00,5.8,0.4,30.10,ENE,57,0.0,3.0,78,0.00,,,0.00,Wunderground v.1.15,2013-12-16 03:10:00,
2013-12-15 21:15:00,6.0,0.6,30.10,ENE,67,5.0,5.0,78,0.00,,,0.00,Wunderground v.1.15,2013-12-16 03:15:00,
2013-12-15 21:20:00,6.0,0.6,30.09,ENE,69,2.0,3.0,78,0.00,,,0.00,Wunderground v.1.15,2013-12-16 03:20:00,
2013-12-15 21:25:00,6.0,0.6,30.09,ENE,76,5.0,7.0,78,0.00,,,0.00,Wunderground v.1.15,2013-12-16 03:25:00,
2013-12-15 21:30:00,6.0,0.6,30.09,ENE,78,0.0,3.0,78,0.00,,,0.00,Wunderground v.1.15,2013-12-16 03:30:00,
2013-12-15 21:35:00,6.0,0.6,30.08,ENE,78,1.0,5.0,78,0.00,,,0.00,Wunderground v.1.15,2013-12-16 03:35:00,
2013-12-15 21:39:00,6.0,0.6,30.08,East,88,0.0,5.0,78,0.00,,,0.00,Wunderground v.1.15,2013-12-16 03:39:00,
2013-12-15 21:44:00,6.0,0.6,30.08,East,99,0.0,6.0,78,0.00,,,0.00,Wunderground v.1.15,2013-12-16 03:44:00,
2013-12-15 21:49:00,6.0,0.6,30.09,East,99,5.0,6.0,78,0.00,,,0.00,Wunderground v.1.15,2013-12-16 03:49:00,
2013-12-15 21:54:00,6.0,0.6,30.09,ESE,106,0.0,5.0,78,0.00,,,0.00,Wunderground v.1.15,2013-12-16 03:54:00,
2013-12-15 21:59:00,6.1,0.7,30.09,ESE,106,0.0,5.0,78,0.00,,,0.00,Wunderground v.1.15,2013-12-16 03:59:00,
2013-12-15 22:04:00,6.1,0.7,30.10,ESE,103,2.0,4.0,78,0.00,,,0.00,Wunderground v.1.15,2013-12-16 04:04:00,
2013-12-15 22:09:00,6.1,0.7,30.10,East,97,0.0,5.0,78,0.00,,,0.00,Wunderground v.1.15,2013-12-16 04:09:00,
2013-12-15 22:14:00,6.3,0.9,30.10,East,82,2.0,6.0,78,0.00,,,0.00,Wunderground v.1.15,2013-12-16 04:14:00,
2013-12-15 22:19:00,6.3,0.9,30.10,East,79,4.0,6.0,78,0.00,,,0.00,Wunderground v.1.15,2013-12-16 04:19:00,
2013-12-15 22:24:00,6.1,0.7,30.10,ESE,122,2.0,5.0,78,0.00,,,0.00,Wunderground v.1.15,2013-12-16 04:24:00,
2013-12-15 22:29:00,6.1,0.7,30.10,East,100,0.0,7.0,78,0.00,,,0.00,Wunderground v.1.15,2013-12-16 04:29:00,
2013-12-15 22:34:00,6.1,0.7,30.09,East,89,3.0,7.0,78,0.00,,,0.00,Wunderground v.1.15,2013-12-16 04:34:00,
2013-12-15 22:39:00,6.1,0.7,30.09,East,92,2.0,7.0,78,0.00,,,0.00,Wunderground v.1.15,2013-12-16 04:39:00,
2013-12-15 22:44:00,6.1,0.7,30.09,East,90,0.0,5.0,78,0.00,,,0.00,Wunderground v.1.15,2013-12-16 04:44:00,
2013-12-15 22:49:00,6.3,0.9,30.08,East,94,3.0,7.0,78,0.00,,,0.00,Wunderground v.1.15,2013-12-16 04:49:00,
2013-12-15 22:54:00,6.3,0.9,30.08,East,94,0.0,5.0,78,0.00,,,0.00,Wunderground v.1.15,2013-12-16 04:54:00,
2013-12-15 22:59:00,6.3,0.9,30.08,East,86,3.0,9.0,78,0.00,,,0.00,Wunderground v.1.15,2013-12-16 04:59:00,
2013-12-15 23:01:00,6.3,0.9,30.08,East,80,5.0,7.0,78,0.00,,,0.00,Wunderground v.1.15,2013-12-16 05:01:00,
2013-12-15 23:02:00,6.3,0.9,30.08,East,89,4.0,7.0,78,0.00,,,0.00,Wunderground v.1.15,2013-12-16 05:02:00,
2013-12-15 23:07:00,6.3,0.9,30.08,East,90,1.0,7.0,78,0.00,,,0.00,Wunderground v.1.15,2013-12-16 05:07:00,
2013-12-15 23:12:00,6.3,0.9,30.08,ESE,106,2.0,7.0,78,0.00,,,0.00,Wunderground v.1.15,2013-12-16 05:12:00,
2013-12-15 23:17:00,6.3,0.9,30.08,East,97,2.0,7.0,78,0.00,,,0.00,Wunderground v.1.15,2013-12-16 05:17:00,
2013-12-15 23:22:00,6.3,1.2,30.08,ESE,102,0.0,5.0,79,0.00,,,0.00,Wunderground v.1.15,2013-12-16 05:22:00,
2013-12-15 23:27:00,6.5,1.4,30.08,ESE,109,0.0,8.0,79,0.00,,,0.00,Wunderground v.1.15,2013-12-16 05:27:00,
2013-12-15 23:32:00,6.5,1.4,30.08,ESE,110,3.0,3.0,79,0.00,,,0.00,Wunderground v.1.15,2013-12-16 05:32:00,
2013-12-15 23:37:00,6.7,1.6,30.07,ESE,110,0.0,4.0,79,0.00,,,0.00,Wunderground v.1.15,2013-12-16 05:37:00,
2013-12-15 23:42:00,6.5,1.4,30.07,ESE,105,3.0,7.0,79,0.00,,,0.00,Wunderground v.1.15,2013-12-16 05:42:00,
2013-12-15 23:47:00,6.5,1.4,30.07,ESE,114,0.0,7.0,79,0.00,,,0.00,Wunderground v.1.15,2013-12-16 05:47:00,
2013-12-15 23:52:00,6.5,1.4,30.06,East,93,3.0,5.0,79,0.00,,,0.00,Wunderground v.1.15,2013-12-16 05:52:00,
2013-12-15 23:57:00,6.7,1.6,30.06,East,91,6.0,6.0,79,0.00,,,0.00,Wunderground v.1.15,2013-12-16 05:57:00,